Location: Stockholm
(59.3330°N, 18.0500°E)
Time: 13:33:16
(UTC+01:00)

Envisat - Pass Details

Date: 29 November 2022
Orbit: 763 x 765 km, 98.2° (Epoch: 29 January)

Event Time Altitude Azimuth Distance (km) Brightness Sun altitude
Rises 02:46:21 0° 22° (NNE) 3,250 6.8 -39.4°
Reaches altitude 10° 02:49:19 10° 40° (NE) 2,318 6.1 -39.1°
Maximum altitude 02:52:58 19° 86° (E) 1,752 5.3 -38.6°
Enters shadow 02:53:36 19° 95° (E) 1,771 5.3 -38.6°
